Date,TemperatureHighF,TemperatureAvgF,TemperatureLowF,DewpointHighF,DewpointAvgF,DewpointLowF,HumidityHigh,HumidityAvg,HumidityLow,PressureMaxIn,PressureMinIn,WindSpeedMaxMPH,WindSpeedAvgMPH,GustSpeedMaxMPH,PrecipitationSumIn
2013-10-1,77.9,65.1,53.4,53.0,45.8,33.0,75,53,21,30.04,29.76,7,2,15,0.00
2013-10-2,78.9,63.5,48.9,59.0,45.2,35.0,82,54,25,30.11,29.89,6,1,13,0.00
2013-10-3,78.7,65.3,58.5,67.0,59.1,55.0,92,81,47,29.90,29.78,6,1,12,0.56
2013-10-4,71.1,62.9,58.1,65.0,59.4,56.0,93,88,72,29.94,29.75,4,1,14,0.47
2013-10-5,67.7,53.9,45.8,65.0,43.4,35.0,91,69,46,29.92,29.79,7,1,15,0.02
2013-10-6,50.0,46.5,43.1,45.0,40.0,35.0,93,79,65,29.95,29.78,8,1,17,0.02
2013-10-7,67.4,53.4,43.4,48.0,43.6,39.0,88,71,46,30.08,29.95,8,1,13,0.00
2013-10-8,76.5,59.0,44.3,46.0,43.2,40.0,87,60,31,30.08,29.98,9,1,21,0.00
2013-10-9,74.7,59.9,46.1,51.0,45.8,43.0,88,63,36,30.15,30.06,7,1,16,0.00
2013-10-10,76.4,59.0,45.2,51.0,45.5,41.0,85,64,35,30.13,29.95,8,1,12,0.00
2013-10-11,71.2,61.8,51.6,60.0,53.7,48.0,88,76,58,29.96,29.73,9,2,20,0.00
2013-10-12,61.4,54.0,46.7,50.0,37.5,28.0,78,56,31,30.29,29.84,11,3,25,0.00
2013-10-13,60.5,48.6,39.3,37.0,31.3,29.0,70,54,31,30.52,30.30,11,0,11,0.00
2013-10-14,59.6,48.8,38.7,44.0,35.4,31.0,86,62,37,30.46,29.96,8,1,16,0.20
2013-10-15,52.2,47.3,45.0,50.0,44.2,41.0,92,88,82,29.98,29.79,11,3,23,0.63
2013-10-16,46.5,43.1,35.9,43.0,39.4,33.0,91,87,75,30.06,29.91,9,2,13,0.03
2013-10-17,57.3,45.0,35.1,41.0,36.1,33.0,91,74,42,30.02,29.87,8,2,20,0.00
2013-10-18,50.0,42.9,38.7,36.0,31.1,25.0,87,65,39,30.10,29.98,11,2,16,0.00
2013-10-19,48.9,39.4,30.5,39.0,31.7,25.0,87,75,57,29.99,29.81,9,2,24,0.02
2013-10-20,56.0,41.2,29.7,40.0,32.3,25.0,83,72,53,30.01,29.74,16,2,28,0.00
2013-10-21,41.2,34.7,28.5,31.0,25.2,23.0,83,69,50,30.11,30.01,12,2,18,0.00
2013-10-22,42.2,35.4,31.1,27.0,25.2,23.0,79,67,50,30.15,30.05,6,1,14,0.00
2013-10-23,38.9,34.1,29.6,30.0,24.3,20.0,80,68,57,30.21,30.13,9,2,17,0.00
2013-10-24,43.8,35.3,27.1,28.0,23.8,19.0,81,64,45,30.45,30.21,11,2,18,0.00
2013-10-25,53.0,42.1,26.3,34.0,29.3,23.0,87,63,44,30.47,30.00,12,2,19,0.00
2013-10-26,47.0,41.4,32.5,35.0,28.3,25.0,77,61,44,30.21,29.98,12,4,25,0.00
2013-10-27,60.3,43.0,28.5,35.0,29.3,23.0,87,62,36,30.17,29.90,6,1,13,0.00
2013-10-28,43.4,38.8,34.0,32.0,29.5,28.0,80,70,60,30.44,30.10,9,3,15,0.00
2013-10-29,55.4,44.3,36.2,43.0,35.2,28.0,87,71,56,30.43,30.11,6,1,13,0.00
2013-10-30,63.5,53.0,47.7,56.0,48.7,41.0,92,85,66,30.11,29.70,10,1,14,0.03
2013-10-31,55.0,41.7,37.8,52.0,38.4,34.0,90,87,83,29.69,29.46,12,3,16,0.01